THY4RM LGTS-LTFM

Flight info

Callsign THY4RM
Flight time 0h 56m
Altitude 33000
Route ARNAS UM603 PEREN UN644 DIGTI UT162 DRAMO
Aircraft A21N/M-SDE3FGHIRWY/LB1

Departure

Time 2026-05-06 03:42
Airport Thessaloniki Macedonia International Airport (LGTS)

Arrival

Time 2026-05-06 04:39
Airport İstanbul Airport (LTFM)
Time Latitude Longitude Altitude Speed Heading
2026-05-06 03:25 40.52362 22.97501 16 ft 0 kts
2026-05-06 03:36 40.52365 22.97500 16 ft 0 kts 348°
2026-05-06 03:36 40.52368 22.97495 16 ft 1 kts 294°
2026-05-06 03:37 40.52369 22.97478 16 ft 1 kts 236°
2026-05-06 03:37 40.52347 22.97484 16 ft 3 kts 147°
2026-05-06 03:37 40.52329 22.97495 16 ft 4 kts 166°
2026-05-06 03:37 40.52279 22.97489 16 ft 6 kts 213°
2026-05-06 03:38 40.52255 22.97464 16 ft 6 kts 227°
2026-05-06 03:38 40.52264 22.97384 16 ft 8 kts 314°
2026-05-06 03:38 40.52294 22.97341 15 ft 10 kts 314°
2026-05-06 03:38 40.52351 22.97267 15 ft 11 kts 315°
2026-05-06 03:39 40.52406 22.97141 15 ft 13 kts 333°
2026-05-06 03:39 40.52465 22.97118 15 ft 13 kts 346°
2026-05-06 03:39 40.52594 22.97076 15 ft 14 kts 346°
2026-05-06 03:39 40.52661 22.97056 15 ft 15 kts 347°
2026-05-06 03:40 40.52767 22.97024 15 ft 15 kts 347°
2026-05-06 03:40 40.52913 22.96977 15 ft 16 kts 346°
2026-05-06 03:40 40.52990 22.96952 15 ft 16 kts 346°
2026-05-06 03:40 40.53057 22.96921 15 ft 9 kts 313°
2026-05-06 03:41 40.53052 22.96839 15 ft 10 kts 231°
2026-05-06 03:41 40.52963 22.96777 15 ft 10 kts 174°
2026-05-06 03:41 40.52957 22.96779 15 ft 0 kts 167°
2026-05-06 03:41 40.52951 22.96781 15 ft 4 kts 167°
2026-05-06 03:42 40.52659 22.96873 14 ft 87 kts 166°
2026-05-06 03:42 40.51877 22.97127 11 ft 155 kts 166°
2026-05-06 03:42 40.50750 22.97488 558 ft 171 kts 166°
2026-05-06 03:42 40.49635 22.97831 1408 ft 167 kts 167°
2026-05-06 03:43 40.48180 22.98253 2373 ft 158 kts 167°
2026-05-06 03:43 40.47449 22.98468 2621 ft 166 kts 167°
2026-05-06 03:43 40.46272 22.98819 2959 ft 183 kts 167°
2026-05-06 03:43 40.44957 22.99210 3341 ft 201 kts 167°
2026-05-06 03:44 40.43559 22.99626 3725 ft 217 kts 167°
2026-05-06 03:44 40.41999 23.00090 4054 ft 240 kts 167°
2026-05-06 03:44 40.40305 23.00593 4481 ft 259 kts 167°
2026-05-06 03:44 40.38523 23.01123 5117 ft 269 kts 167°
2026-05-06 03:45 40.36710 23.01661 5927 ft 271 kts 167°
2026-05-06 03:45 40.34862 23.02122 6710 ft 274 kts 178°
2026-05-06 03:45 40.32990 23.01704 7449 ft 277 kts 204°
2026-05-06 03:45 40.31107 22.99671 8388 ft 281 kts 237°
2026-05-06 03:46 40.30530 22.98071 8874 ft 283 kts 255°
2026-05-06 03:46 40.30427 22.95510 9562 ft 286 kts 281°
2026-05-06 03:46 40.31631 22.92465 10408 ft 291 kts 316°
2026-05-06 03:46 40.32702 22.91418 10626 ft 301 kts 334°
2026-05-06 03:47 40.35530 22.90874 11056 ft 320 kts 12°
2026-05-06 03:47 40.36964 22.91387 11474 ft 323 kts 17°
2026-05-06 03:47 40.39123 22.92261 12155 ft 325 kts 17°
2026-05-06 03:47 40.41304 22.93123 12792 ft 329 kts 17°
2026-05-06 03:48 40.43459 22.93952 13406 ft 332 kts 16°
2026-05-06 03:48 40.45694 22.94796 14026 ft 335 kts 16°
2026-05-06 03:48 40.47909 22.95627 14620 ft 338 kts 16°
2026-05-06 03:48 40.50148 22.96466 15202 ft 341 kts 16°
2026-05-06 03:49 40.52425 22.97368 15772 ft 344 kts 22°
2026-05-06 03:49 40.54456 22.99050 16286 ft 347 kts 45°
2026-05-06 03:49 40.56117 23.02718 16716 ft 360 kts 76°
2026-05-06 03:49 40.56328 23.04907 16875 ft 367 kts 92°
2026-05-06 03:50 40.55757 23.08186 17273 ft 372 kts 116°
2026-05-06 03:50 40.54305 23.11006 17928 ft 369 kts 128°
2026-05-06 03:50 40.52965 23.13650 18548 ft 367 kts 115°
2026-05-06 03:50 40.52319 23.16959 19110 ft 367 kts 92°
2026-05-06 03:51 40.52292 23.20213 19725 ft 365 kts 89°
2026-05-06 03:51 40.52337 23.23541 20293 ft 365 kts 88°
2026-05-06 03:51 40.52400 23.26866 20847 ft 364 kts 88°
2026-05-06 03:51 40.52464 23.30161 21399 ft 364 kts 88°
2026-05-06 03:52 40.52525 23.33453 21945 ft 363 kts 88°
2026-05-06 03:52 40.52584 23.36762 22481 ft 362 kts 88°
2026-05-06 03:52 40.52640 23.40079 23004 ft 361 kts 88°
2026-05-06 03:52 40.52696 23.43377 23514 ft 360 kts 88°
2026-05-06 03:53 40.52859 23.47753 24175 ft 359 kts 84°
2026-05-06 03:53 40.53050 23.49939 24499 ft 359 kts 81°
2026-05-06 03:53 40.53459 23.53143 24973 ft 358 kts 79°
2026-05-06 03:53 40.53925 23.56414 25259 ft 364 kts 79°
2026-05-06 03:54 40.54403 23.59723 25418 ft 372 kts 79°
2026-05-06 03:54 40.54890 23.63114 25576 ft 381 kts 79°
2026-05-06 03:54 40.55383 23.66569 25729 ft 389 kts 79°
2026-05-06 03:54 40.55883 23.70106 25880 ft 397 kts 79°
2026-05-06 03:55 40.56386 23.73677 26079 ft 402 kts 79°
2026-05-06 03:55 40.57070 23.78543 26501 ft 406 kts 79°
2026-05-06 03:55 40.57414 23.80986 26724 ft 407 kts 79°
2026-05-06 03:55 40.58101 23.85883 27146 ft 409 kts 79°
2026-05-06 03:56 40.58442 23.88328 27349 ft 411 kts 79°
2026-05-06 03:56 40.58953 23.91996 27651 ft 413 kts 79°
2026-05-06 03:56 40.59515 23.95739 27953 ft 415 kts 77°
2026-05-06 03:56 40.60231 23.99443 28253 ft 417 kts 73°
2026-05-06 03:57 40.61063 24.03083 28546 ft 418 kts 73°
2026-05-06 03:57 40.61925 24.06747 28834 ft 420 kts 72°
2026-05-06 03:57 40.62799 24.10449 29120 ft 422 kts 72°
2026-05-06 03:57 40.63667 24.14128 29399 ft 424 kts 72°
2026-05-06 03:58 40.64541 24.17850 29676 ft 426 kts 72°
2026-05-06 03:58 40.65418 24.21594 29948 ft 428 kts 72°
2026-05-06 03:58 40.66294 24.25341 30216 ft 430 kts 72°
2026-05-06 03:58 40.67167 24.29084 30479 ft 431 kts 72°
2026-05-06 03:59 40.68044 24.32850 30735 ft 433 kts 72°
2026-05-06 03:59 40.68939 24.36699 30991 ft 435 kts 72°
2026-05-06 03:59 40.69819 24.40486 31239 ft 437 kts 72°
2026-05-06 03:59 40.70709 24.44329 31483 ft 438 kts 72°
2026-05-06 04:00 40.71603 24.48190 31723 ft 440 kts 72°
2026-05-06 04:00 40.72490 24.52028 31956 ft 442 kts 72°
2026-05-06 04:00 40.73383 24.55892 32185 ft 443 kts 72°
2026-05-06 04:00 40.74285 24.59803 32411 ft 445 kts 72°
2026-05-06 04:01 40.75187 24.63724 32631 ft 446 kts 72°
2026-05-06 04:01 40.76090 24.67665 32847 ft 448 kts 73°
2026-05-06 04:01 40.76991 24.71618 32964 ft 450 kts 73°
2026-05-06 04:01 40.77884 24.75557 32970 ft 449 kts 73°
2026-05-06 04:02 40.79671 24.83445 32977 ft 449 kts 73°
2026-05-06 04:02 40.81465 24.91347 32978 ft 449 kts 73°
2026-05-06 04:03 40.83266 24.99297 32978 ft 449 kts 73°
2026-05-06 04:03 40.85054 25.07211 32978 ft 449 kts 73°
2026-05-06 04:04 40.86833 25.15103 32978 ft 449 kts 73°
2026-05-06 04:04 40.88908 25.24335 32978 ft 449 kts 73°
2026-05-06 04:05 40.90383 25.30937 32978 ft 449 kts 73°
2026-05-06 04:05 40.92429 25.40186 32978 ft 449 kts 73°
2026-05-06 04:06 40.93898 25.46829 32978 ft 449 kts 73°
2026-05-06 04:06 40.95919 25.55978 32978 ft 449 kts 73°
2026-05-06 04:07 40.97676 25.63958 32978 ft 449 kts 73°
2026-05-06 04:07 40.99421 25.71923 32978 ft 449 kts 74°
2026-05-06 04:08 41.01178 25.79976 32979 ft 449 kts 74°
2026-05-06 04:08 41.02625 25.86611 32979 ft 449 kts 74°
2026-05-06 04:09 41.04342 25.94501 32979 ft 449 kts 74°
2026-05-06 04:09 41.06065 26.02446 32759 ft 448 kts 74°
2026-05-06 04:10 41.06928 26.06426 32500 ft 446 kts 74°
2026-05-06 04:10 41.07785 26.10383 32164 ft 444 kts 74°
2026-05-06 04:10 41.08638 26.14329 31760 ft 441 kts 74°
2026-05-06 04:10 41.09469 26.18191 31319 ft 437 kts 74°
2026-05-06 04:11 41.10257 26.21864 30854 ft 434 kts 74°
2026-05-06 04:11 41.10912 26.25421 30389 ft 431 kts 80°
2026-05-06 04:11 41.11151 26.33418 29779 ft 426 kts 96°
2026-05-06 04:12 41.10641 26.37331 29460 ft 424 kts 104°
2026-05-06 04:12 41.09764 26.41011 29146 ft 422 kts 111°
2026-05-06 04:12 41.08662 26.44608 28832 ft 420 kts 112°
2026-05-06 04:12 41.07522 26.48174 28518 ft 418 kts 112°
2026-05-06 04:13 41.06384 26.51743 28199 ft 416 kts 112°
2026-05-06 04:13 41.05283 26.55225 27883 ft 414 kts 112°
2026-05-06 04:13 41.04284 26.58811 27464 ft 410 kts 105°
2026-05-06 04:13 41.03677 26.62474 26934 ft 407 kts 97°
2026-05-06 04:14 41.03474 26.66264 26407 ft 405 kts 90°
2026-05-06 04:14 41.03523 26.69942 25929 ft 401 kts 89°
2026-05-06 04:14 41.03477 26.73673 25441 ft 398 kts 92°
2026-05-06 04:14 41.03349 26.77311 25069 ft 394 kts 93°
2026-05-06 04:15 41.03218 26.80843 24922 ft 394 kts 93°
2026-05-06 04:15 41.03091 26.84480 24710 ft 391 kts 92°
2026-05-06 04:15 41.02972 26.88068 24240 ft 388 kts 92°
2026-05-06 04:15 41.02861 26.91613 23705 ft 387 kts 92°
2026-05-06 04:16 41.02750 26.95141 23221 ft 385 kts 92°
2026-05-06 04:16 41.02639 26.98696 22747 ft 382 kts 92°
2026-05-06 04:16 41.02531 27.02182 22279 ft 379 kts 92°
2026-05-06 04:16 41.02422 27.05661 21810 ft 376 kts 92°
2026-05-06 04:17 41.02316 27.09073 21348 ft 374 kts 92°
2026-05-06 04:17 41.02207 27.12536 20879 ft 371 kts 92°
2026-05-06 04:17 41.02099 27.15939 20416 ft 368 kts 92°
2026-05-06 04:17 41.01954 27.19197 19971 ft 366 kts 95°
2026-05-06 04:18 41.01670 27.22550 19514 ft 363 kts 97°
2026-05-06 04:18 41.01353 27.25888 19050 ft 361 kts 97°
2026-05-06 04:18 41.01043 27.29169 18593 ft 358 kts 97°
2026-05-06 04:18 41.00738 27.32482 18154 ft 355 kts 96°
2026-05-06 04:19 41.00447 27.35702 17997 ft 354 kts 96°
2026-05-06 04:19 41.00156 27.38948 17993 ft 355 kts 96°
2026-05-06 04:19 40.99869 27.42173 17990 ft 355 kts 96°
2026-05-06 04:19 40.99581 27.45421 17989 ft 355 kts 96°
2026-05-06 04:20 40.99289 27.48708 17988 ft 355 kts 96°
2026-05-06 04:20 40.99002 27.51930 17988 ft 355 kts 96°
2026-05-06 04:20 40.98709 27.55206 17988 ft 355 kts 96°
2026-05-06 04:20 40.98418 27.58452 17988 ft 355 kts 96°
2026-05-06 04:21 40.98130 27.61670 17940 ft 352 kts 96°
2026-05-06 04:21 40.97838 27.64912 17544 ft 349 kts 96°
2026-05-06 04:21 40.97553 27.68071 17021 ft 350 kts 97°
2026-05-06 04:21 40.97272 27.71183 16566 ft 348 kts 97°
2026-05-06 04:22 40.96977 27.74440 16111 ft 345 kts 97°
2026-05-06 04:22 40.96693 27.77557 15669 ft 343 kts 97°
2026-05-06 04:22 40.96408 27.80683 15223 ft 340 kts 97°
2026-05-06 04:23 40.95840 27.86872 14335 ft 336 kts 97°
2026-05-06 04:23 40.95556 27.89961 13890 ft 334 kts 97°
2026-05-06 04:23 40.95277 27.92975 13454 ft 332 kts 97°
2026-05-06 04:23 40.94996 27.96011 13013 ft 329 kts 97°
2026-05-06 04:24 40.94718 27.98999 12578 ft 327 kts 97°
2026-05-06 04:24 40.94439 28.01997 12140 ft 325 kts 97°
2026-05-06 04:24 40.94165 28.04925 11712 ft 323 kts 97°
2026-05-06 04:24 40.93888 28.07876 11278 ft 321 kts 97°
2026-05-06 04:25 40.93614 28.10791 10848 ft 319 kts 97°
2026-05-06 04:25 40.93340 28.13694 10419 ft 317 kts 97°
2026-05-06 04:25 40.93067 28.16585 9988 ft 315 kts 97°
2026-05-06 04:25 40.92798 28.19427 9568 ft 313 kts 97°
2026-05-06 04:26 40.92529 28.22250 9335 ft 304 kts 97°
2026-05-06 04:26 40.92270 28.24972 9144 ft 292 kts 97°
2026-05-06 04:26 40.92018 28.27609 8854 ft 284 kts 97°
2026-05-06 04:26 40.91770 28.30204 8516 ft 281 kts 97°
2026-05-06 04:27 40.91524 28.32772 8143 ft 279 kts 97°
2026-05-06 04:27 40.91284 28.35269 7941 ft 271 kts 97°
2026-05-06 04:27 40.91052 28.37682 7769 ft 262 kts 97°
2026-05-06 04:27 40.90824 28.40046 7599 ft 253 kts 97°
2026-05-06 04:28 40.90601 28.42345 7393 ft 246 kts 97°
2026-05-06 04:28 40.90385 28.44577 7081 ft 245 kts 97°
2026-05-06 04:28 40.90167 28.46819 6751 ft 244 kts 97°
2026-05-06 04:28 40.89949 28.49038 6430 ft 242 kts 97°
2026-05-06 04:29 40.89722 28.51248 6110 ft 241 kts 97°
2026-05-06 04:29 40.89496 28.53437 5794 ft 240 kts 97°
2026-05-06 04:29 40.89274 28.55633 5477 ft 239 kts 97°
2026-05-06 04:29 40.89144 28.57800 5163 ft 238 kts 88°
2026-05-06 04:30 40.89359 28.59944 4952 ft 235 kts 75°
2026-05-06 04:30 40.89857 28.62048 4937 ft 237 kts 70°
2026-05-06 04:30 40.90407 28.64111 4932 ft 237 kts 70°
2026-05-06 04:30 40.90960 28.66179 4930 ft 237 kts 71°
2026-05-06 04:31 40.91529 28.68224 4926 ft 237 kts 63°
2026-05-06 04:31 40.92611 28.69879 4927 ft 237 kts 33°
2026-05-06 04:31 40.94030 28.70966 4933 ft 237 kts 28°
2026-05-06 04:31 40.95502 28.71995 4928 ft 234 kts 28°
2026-05-06 04:32 40.96897 28.72978 4919 ft 222 kts 27°
2026-05-06 04:32 40.98363 28.73613 4918 ft 221 kts
2026-05-06 04:32 40.99899 28.73622 4935 ft 221 kts 357°
2026-05-06 04:32 41.01436 28.73500 4993 ft 220 kts 356°
2026-05-06 04:33 41.02959 28.73400 4991 ft 218 kts 358°
2026-05-06 04:33 41.04424 28.73337 4939 ft 197 kts 358°
2026-05-06 04:33 41.05702 28.73297 4934 ft 170 kts 359°
2026-05-06 04:33 41.06839 28.73267 4915 ft 161 kts 359°
2026-05-06 04:34 41.07965 28.73215 4823 ft 161 kts 358°
2026-05-06 04:34 41.09063 28.73158 4666 ft 159 kts 358°
2026-05-06 04:34 41.10172 28.73110 4390 ft 158 kts 358°
2026-05-06 04:34 41.11266 28.73074 4073 ft 158 kts 359°
2026-05-06 04:35 41.12377 28.73045 3588 ft 164 kts 359°
2026-05-06 04:35 41.13536 28.73019 3052 ft 171 kts 359°
2026-05-06 04:35 41.14720 28.72996 2622 ft 170 kts 359°
2026-05-06 04:35 41.15855 28.72974 2358 ft 159 kts 359°
2026-05-06 04:36 41.16927 28.72958 2144 ft 153 kts 359°
2026-05-06 04:36 41.17990 28.72942 1943 ft 152 kts 359°
2026-05-06 04:36 41.18973 28.72925 1755 ft 152 kts 359°
2026-05-06 04:36 41.20066 28.72903 1549 ft 151 kts 359°
2026-05-06 04:37 41.21112 28.72878 1354 ft 151 kts 359°
2026-05-06 04:37 41.22151 28.72853 1151 ft 150 kts 359°
2026-05-06 04:37 41.23199 28.72832 944 ft 150 kts 359°
2026-05-06 04:37 41.24250 28.72817 735 ft 149 kts 359°
2026-05-06 04:38 41.25282 28.72790 552 ft 148 kts 359°
2026-05-06 04:38 41.26306 28.72773 395 ft 147 kts 359°
2026-05-06 04:38 41.27288 28.72742 334 ft 126 kts 359°
2026-05-06 04:38 41.27994 28.72742 334 ft 76 kts 360°
2026-05-06 04:39 41.28404 28.72730 334 ft 45 kts 359°
2026-05-06 04:39 41.28602 28.72789 334 ft 13 kts 27°
2026-05-06 04:39 41.28688 28.72849 334 ft 14 kts 28°
2026-05-06 04:39 41.28756 28.72910 334 ft 11 kts 66°
2026-05-06 04:40 41.28708 28.72965 334 ft 12 kts 180°
2026-05-06 04:40 41.28621 28.72966 334 ft 13 kts 179°
2026-05-06 04:40 41.28525 28.72968 334 ft 14 kts 179°
2026-05-06 04:40 41.28423 28.72970 334 ft 15 kts 179°
2026-05-06 04:41 41.28315 28.72972 334 ft 15 kts 179°
2026-05-06 04:41 41.28202 28.72975 334 ft 16 kts 179°
2026-05-06 04:41 41.28085 28.72977 334 ft 17 kts 179°
2026-05-06 04:41 41.27964 28.72979 334 ft 17 kts 179°
2026-05-06 04:42 41.27839 28.72982 334 ft 18 kts 179°
2026-05-06 04:42 41.27713 28.72985 334 ft 18 kts 179°
2026-05-06 04:42 41.27582 28.72987 334 ft 18 kts 179°
2026-05-06 04:42 41.27451 28.72990 334 ft 19 kts 179°
2026-05-06 04:43 41.27318 28.72992 334 ft 19 kts 180°
2026-05-06 04:43 41.27182 28.72992 334 ft 19 kts 180°
2026-05-06 04:43 41.27046 28.72994 334 ft 19 kts 179°
2026-05-06 04:43 41.26908 28.72995 334 ft 19 kts 179°
2026-05-06 04:44 41.26817 28.72996 334 ft 9 kts 179°
2026-05-06 04:44 41.26746 28.73001 334 ft 10 kts 160°
2026-05-06 04:44 41.26720 28.73089 334 ft 11 kts 89°
2026-05-06 04:44 41.26721 28.73202 334 ft 12 kts 89°
2026-05-06 04:45 41.26717 28.73323 334 ft 12 kts 120°
2026-05-06 04:45 41.26628 28.73346 334 ft 14 kts 180°
2026-05-06 04:45 41.26543 28.73380 334 ft 10 kts 107°
2026-05-06 04:45 41.26551 28.73432 334 ft 4 kts 73°
2026-05-06 04:46 41.26558 28.73461 334 ft 2 kts 71°
2026-05-06 04:46 41.26560 28.73467 334 ft 0 kts 71°